[[{"header":{"parameterUnit":"m.s-1","parameterCategory":1,"la1":30.2991,"la2":30.254,"lo1":-89.0895,"lo2":-89.0444,"dy":0.0017,"dx":0.0017,"nx":28,"ny":28,"refTime":"2024-03-27T09:00:00:Z","depth":0,"parameterNumber":2,"parameterNumberName":"U-component_of_WINDS"},"data":[0,0,0,0,0,0,0,0,0,0,0,0,0,0,0,0,0,0,0,0,0,0,0,0,0,0,0,0,0,0,0,0,0,0,0,0,0,0,0,0,0,0,0,0,0,0,0,0,0,0,0,0,0,0,0,0,0,0,3.1449,3.145,0,3.1512,3.1513,3.1514,3.1481,3.1479,3.1478,3.1476,3.1538,3.1541,3.1544,0,0,0,0,0,0,0,0,0,0,0,0,0,3.13,3.1303,3.1449,3.145,3.1451,3.1512,3.1513,3.1514,3.1481,3.1479,3.1477,3.1475,3.1537,3.1541,3.1545,0,0,0,0,0,0,0,0,0,0,0,0,0,3.1364,3.1304,3.1449,3.1442,3.1442,3.1512,3.1513,3.1514,3.1482,3.1479,3.1477,3.1474,3.1536,3.154,3.1545,3.1625,0,0,3.156,3.1562,0,0,0,0,0,0,0,0,3.136,3.137,3.1442,3.1443,3.1443,3.1486,3.1483,3.1551,3.1482,3.1466,3.1476,3.1473,3.1523,3.1528,3.1546,3.1628,3.1631,3.156,3.1563,3.1565,3.1567,0,0,0,0,0,0,0,3.1356,3.1367,3.1474,3.1443,3.1444,3.1435,3.1442,3.1496,3.1508,3.1468,3.1465,3.1473,3.1522,3.1541,3.1547,3.1632,3.156,3.1565,3.1567,3.1569,3.1785,3.1788,0,0,0,0,0,0,3.1352,3.1363,3.1472,3.1476,3.1395,3.144,3.1447,3.1475,3.1507,3.151,3.1476,3.1472,3.1534,3.1541,3.1549,3.1646,3.1565,3.157,3.1573,3.1782,3.1786,3.1789,0,0,0,0,0,0,3.1349,3.1362,3.1469,3.1419,3.1432,3.1445,3.1477,3.1477,3.1496,3.1513,3.1515,3.1493,3.1532,3.1542,3.1607,3.1648,3.1572,3.1576,3.1779,3.1783,3.1787,3.184,0,0,0,0,0,0,3.1345,3.1361,3.1392,3.142,3.1435,3.1527,3.1479,3.148,3.1505,3.15,3.153,3.1532,3.1531,3.16,3.1612,3.1653,3.158,3.1775,3.1781,3.1786,3.1835,3.1846,3.1855,0,0,0,0,0,3.134,3.1403,3.1393,3.1407,3.1473,3.1529,3.1538,3.1536,3.1508,3.1539,3.155,3.1531,3.1642,3.1607,3.162,3.1663,3.1773,3.1779,3.1786,3.183,3.1843,3.1855,0,0,0,0,0,0,3.1378,3.1406,3.1396,3.147,3.1498,3.1524,3.1562,3.155,3.1585,3.1579,3.1575,3.1582,3.165,3.1663,3.1624,3.1743,3.1703,3.1712,3.1732,3.1745,3.1755,3.175,3.1584,0,0,0,0,0,3.1395,3.1438,3.1461,3.1524,3.1539,3.1549,3.1573,3.157,3.1597,3.1608,3.1624,3.1652,3.1693,3.1719,3.1758,3.1837,3.1843,3.1873,3.1883,3.1891,3.1899,3.1944,3.1957,3.181,3.181,3.181,0,0,3.143,3.1452,3.1479,3.1533,3.1553,3.1599,3.1558,3.1607,3.1641,3.1615,3.1678,3.1691,3.1722,3.1795,3.1827,3.1807,3.1942,3.1899,3.1906,3.1909,3.1952,3.1966,3.1978,3.1814,3.1813,3.1813,0,0,3.1518,3.1539,3.1595,3.1617,3.165,3.1656,3.167,3.1698,3.1706,3.177,3.1752,3.1792,3.1862,3.1885,3.1906,3.2006,3.199,3.2019,3.2071,3.2115,3.2126,3.2136,3.2173,3.2186,3.2027,3.2027,3.2027,0,3.1558,3.1626,3.1624,3.1676,3.1701,3.1682,3.1739,3.176,3.1803,3.1821,3.1798,3.1888,3.1907,3.1986,3.2011,3.2028,3.2044,3.2015,3.2125,3.2135,3.2145,3.218,3.2193,3.203,3.203,3.203,3.2029,0,3.1674,3.1721,3.1762,3.1807,3.1836,3.189,3.1897,3.1927,3.1922,3.1931,3.1997,3.2019,3.2063,3.2081,3.2076,3.216,3.2147,3.2125,3.2084,3.2162,3.2195,3.2208,3.2035,3.2034,3.2033,3.2032,0,0,3.1785,3.183,3.1845,3.1866,3.1902,3.1939,3.1992,3.2037,3.2063,3.2094,3.2139,3.2201,3.2181,3.2205,3.2202,3.2241,3.232,3.2214,3.2214,3.2233,3.2416,3.2432,3.2448,3.231,3.2313,3.2315,3.2413,0,3.1876,3.1971,3.1972,3.2059,3.2104,3.2088,3.2135,3.2162,3.2173,3.2212,3.2223,3.2268,3.2238,3.2252,3.229,3.2303,3.2357,3.2295,3.2352,3.2354,3.2345,3.2465,3.2482,3.2574,3.2426,3.2428,3.243,0,3.1994,3.2031,3.2123,3.2155,3.2174,3.2216,3.2258,3.2295,3.2327,3.2332,3.236,3.2353,3.2408,3.2366,3.2443,3.2401,3.2425,3.2435,3.2439,3.2444,3.2397,3.2473,3.2603,3.2617,3.245,3.2448,3.2447,0,3.2068,3.214,3.2205,3.2223,3.2262,3.2292,3.2309,3.2338,3.2366,3.2402,3.242,3.2462,3.2485,3.2518,3.2523,3.2491,3.26,3.2558,3.2606,3.2606,3.2629,3.2628,3.2765,3.2644,3.2644,3.2644,3.2644,0,3.2169,3.2226,3.2239,3.2279,3.2342,3.2344,3.2407,3.2422,3.2449,3.2492,3.248,3.252,3.2524,3.2566,3.2569,3.2633,3.2643,3.2649,3.265,3.2651,3.265,3.2666,3.2659,3.2648,3.2647,3.2646,3.2645,0,3.2261,3.2272,3.2342,3.2373,3.2383,3.2429,3.2456,3.2494,3.2505,3.2559,3.2572,3.2588,3.2637,3.2645,3.2702,3.2704,3.2781,3.2774,3.2771,3.277,3.2818,3.2813,3.297,3.2991,3.2856,3.2858,3.2859,0,3.2325,3.2368,3.2406,3.2434,3.2454,3.2499,3.2528,3.2532,3.2562,3.2603,3.2637,3.2685,3.2723,3.2802,3.2819,3.2863,3.2857,3.2909,3.2864,3.2864,3.2859,3.2856,3.2861,3.2918,3.2919,3.292,3.2921,0,3.2437,3.2441,3.2483,3.2528,3.2562,3.2597,3.263,3.2654,3.2663,3.2698,3.2748,3.2778,3.2838,3.2886,3.293,3.2948,3.2937,3.2936,3.295,3.2951,3.2947,3.2951,3.2795,3.2932,3.2931,3.293,3.293,3.2929,3.2517,3.2556,3.259,3.2637,3.2663,3.2695,3.2733,3.275,3.2792,3.2842,3.2842,3.2897,3.293,3.2988,3.3009,3.3053,3.3036,3.3056,3.3061,3.3066,3.3071,3.2941,3.3061,3.3061,3.3061,3.306,3.306,0,3.263,3.2651,3.2695,3.2743,3.2781,3.2768,3.2805,3.2837,3.2887,3.2919,3.2958,3.3017,3.3064,3.3086,3.3132,3.3164,3.316,3.3176,3.3173,3.3178,3.3082,3.3066,3.3178,3.3178,3.3178,3.3178,3.3178,3.3178,3.2693,3.2759,3.2767,3.2846,3.2867,3.2923,3.2945,3.2975,3.3,3.3067,3.3107,3.3121,3.3149,3.3198,3.3242,3.3247,3.3265,3.3283,3.3286,3.3196,3.3184,3.3173,3.3158,3.3287,3.3287,3.3378,3.3379,3.338]},{"header":{"parameterUnit":"m.s-1","parameterCategory":1,"la1":30.2991,"la2":30.254,"lo1":-89.0895,"lo2":-89.0444,"dy":0.0017,"dx":0.0017,"nx":28,"ny":28,"refTime":"2024-03-27T09:00:00:Z","depth":0,"parameterNumber":3,"parameterNumberName":"V-component_of_WINDS"},"data":[0,0,0,0,0,0,0,0,0,0,0,0,0,0,0,0,0,0,0,0,0,0,0,0,0,0,0,0,0,0,0,0,0,0,0,0,0,0,0,0,0,0,0,0,0,0,0,0,0,0,0,0,0,0,0,0,0,0,-7.4932,-7.4934,0,-7.5117,-7.5119,-7.5121,-7.5067,-7.5064,-7.506,-7.5056,-7.5241,-7.525,-7.5258,0,0,0,0,0,0,0,0,0,0,0,0,0,-7.4529,-7.4536,-7.4932,-7.4934,-7.4936,-7.5117,-7.5119,-7.5122,-7.5068,-7.5063,-7.5059,-7.5055,-7.5239,-7.5249,-7.5259,0,0,0,0,0,0,0,0,0,0,0,0,0,-7.4708,-7.4539,-7.4931,-7.4931,-7.4933,-7.5116,-7.5119,-7.5122,-7.5069,-7.5063,-7.5058,-7.5052,-7.5235,-7.5248,-7.526,-7.5453,0,0,-7.5299,-7.5305,0,0,0,0,0,0,0,0,-7.4697,-7.4722,-7.4929,-7.4932,-7.4934,-7.5063,-7.5045,-7.5233,-7.5071,-7.5017,-7.5056,-7.505,-7.5186,-7.5203,-7.525,-7.5461,-7.5469,-7.53,-7.5308,-7.5313,-7.5317,0,0,0,0,0,0,0,-7.4685,-7.4714,-7.5005,-7.4932,-7.4935,-7.4921,-7.494,-7.508,-7.5131,-7.5022,-7.5018,-7.5041,-7.5187,-7.5238,-7.5254,-7.5472,-7.53,-7.5311,-7.5319,-7.5324,-7.5852,-7.5858,0,0,0,0,0,0,-7.4671,-7.4704,-7.4999,-7.501,-7.48,-7.4933,-7.4955,-7.5028,-7.513,-7.514,-7.5046,-7.5038,-7.5219,-7.5239,-7.526,-7.5493,-7.5313,-7.5325,-7.5332,-7.5845,-7.5853,-7.586,0,0,0,0,0,0,-7.4663,-7.4698,-7.4991,-7.4857,-7.4893,-7.4946,-7.5029,-7.5034,-7.5085,-7.5148,-7.5157,-7.5089,-7.5215,-7.5242,-7.5406,-7.5499,-7.5331,-7.5342,-7.5838,-7.5848,-7.5856,-7.596,0,0,0,0,0,0,-7.4652,-7.4696,-7.477,-7.4859,-7.49,-7.5135,-7.5034,-7.5042,-7.5108,-7.5099,-7.5191,-7.52,-7.5213,-7.5387,-7.5418,-7.5513,-7.5352,-7.583,-7.5842,-7.5853,-7.5949,-7.5972,-7.5992,0,0,0,0,0,-7.4637,-7.4791,-7.4774,-7.481,-7.4995,-7.5141,-7.5164,-7.5177,-7.5116,-7.5191,-7.5231,-7.5198,-7.5484,-7.5404,-7.5439,-7.5539,-7.5824,-7.5839,-7.5852,-7.5939,-7.5968,-7.5992,0,0,0,0,0,0,-7.471,-7.4802,-7.4785,-7.4971,-7.5049,-7.5132,-7.5226,-7.5207,-7.5302,-7.529,-7.53,-7.5321,-7.5489,-7.553,-7.544,-7.5731,-7.5644,-7.5667,-7.5698,-7.5726,-7.5747,-7.5734,-7.5363,0,0,0,0,0,-7.4748,-7.486,-7.4934,-7.5092,-7.5132,-7.5173,-7.5237,-7.524,-7.532,-7.5352,-7.5404,-7.5482,-7.5589,-7.566,-7.5762,-7.5954,-7.5974,-7.604,-7.6062,-7.608,-7.6099,-7.6204,-7.6235,-7.5907,-7.5907,-7.5907,0,0,-7.4826,-7.4891,-7.4961,-7.5108,-7.5168,-7.5284,-7.52,-7.5325,-7.5411,-7.537,-7.5529,-7.557,-7.5657,-7.5837,-7.5918,-7.5876,-7.6193,-7.6098,-7.6112,-7.6121,-7.6222,-7.6253,-7.6281,-7.5917,-7.5915,-7.5914,0,0,-7.5029,-7.509,-7.5228,-7.5291,-7.5384,-7.5411,-7.5444,-7.553,-7.5557,-7.5716,-7.5689,-7.5789,-7.5974,-7.6038,-7.6095,-7.6324,-7.6296,-7.6356,-7.647,-7.6573,-7.6599,-7.6622,-7.6704,-7.6733,-7.6375,-7.6375,-7.6375,0,-7.5115,-7.5289,-7.5301,-7.543,-7.5495,-7.5466,-7.5606,-7.5665,-7.5787,-7.5832,-7.5784,-7.6017,-7.6073,-7.6267,-7.6323,-7.637,-7.6408,-7.6346,-7.6594,-7.6617,-7.6639,-7.6718,-7.6748,-7.6382,-7.6381,-7.6381,-7.638,0,-7.5391,-7.5512,-7.5612,-7.5733,-7.5809,-7.5943,-7.5974,-7.605,-7.6047,-7.6078,-7.6241,-7.6308,-7.6424,-7.647,-7.6467,-7.6665,-7.6636,-7.6591,-7.6504,-7.6677,-7.6751,-7.6781,-7.6392,-7.6389,-7.6387,-7.6386,0,0,-7.5644,-7.577,-7.5807,-7.5862,-7.5963,-7.6056,-7.6188,-7.6303,-7.6369,-7.6453,-7.6564,-7.6722,-7.6682,-7.6746,-7.675,-7.6841,-7.7019,-7.6785,-7.6787,-7.6826,-7.7241,-7.7274,-7.7309,-7.7001,-7.7007,-7.7012,-7.7234,0,-7.5856,-7.609,-7.6105,-7.6317,-7.6429,-7.6403,-7.6518,-7.6593,-7.6626,-7.6725,-7.676,-7.6873,-7.681,-7.6849,-7.6938,-7.6978,-7.7102,-7.6962,-7.7104,-7.7109,-7.7084,-7.7348,-7.7383,-7.759,-7.7263,-7.7268,-7.7271,0,-7.6135,-7.623,-7.6454,-7.6541,-7.6588,-7.6692,-7.6799,-7.6894,-7.6978,-7.6995,-7.7069,-7.706,-7.7195,-7.7104,-7.7289,-7.7194,-7.7253,-7.7282,-7.729,-7.7304,-7.7201,-7.7369,-7.7656,-7.7687,-7.7317,-7.7313,-7.731,0,-7.6298,-7.6482,-7.664,-7.6687,-7.6792,-7.6866,-7.6913,-7.6991,-7.706,-7.7153,-7.7198,-7.7305,-7.7364,-7.7446,-7.7467,-7.7398,-7.7653,-7.7563,-7.7671,-7.7671,-7.7726,-7.7722,-7.8026,-7.7763,-7.7763,-7.7762,-7.7761,0,-7.6533,-7.6671,-7.6715,-7.6812,-7.6966,-7.6981,-7.7133,-7.7175,-7.7245,-7.7349,-7.7332,-7.743,-7.7451,-7.7554,-7.757,-7.7722,-7.7748,-7.7766,-7.7769,-7.7768,-7.7766,-7.7807,-7.7793,-7.777,-7.7768,-7.7767,-7.7765,0,-7.6741,-7.6776,-7.6947,-7.7033,-7.7058,-7.7167,-7.7241,-7.7334,-7.7365,-7.7497,-7.7529,-7.7578,-7.7697,-7.7727,-7.7868,-7.7879,-7.8059,-7.8048,-7.8032,-7.8031,-7.8138,-7.8128,-7.848,-7.8527,-7.8232,-7.8235,-7.8237,0,-7.6889,-7.6995,-7.7094,-7.7163,-7.7214,-7.7326,-7.7397,-7.7416,-7.749,-7.7594,-7.7675,-7.7793,-7.7888,-7.808,-7.8127,-7.8236,-7.8227,-7.8343,-7.8243,-7.824,-7.823,-7.8224,-7.8235,-7.8362,-7.8365,-7.8368,-7.837,0,-7.7149,-7.7162,-7.7265,-7.7376,-7.7461,-7.7548,-7.7631,-7.7689,-7.772,-7.7804,-7.7927,-7.8001,-7.8147,-7.8264,-7.8374,-7.842,-7.8401,-7.8401,-7.8432,-7.8432,-7.8419,-7.8428,-7.8084,-7.8393,-7.839,-7.8389,-7.8388,-7.8387,-7.7332,-7.7426,-7.751,-7.7626,-7.7691,-7.777,-7.7862,-7.7906,-7.801,-7.8131,-7.8136,-7.827,-7.8351,-7.8497,-7.855,-7.8654,-7.8619,-7.8663,-7.8675,-7.8686,-7.8696,-7.8402,-7.8674,-7.8674,-7.8673,-7.8672,-7.8672,0,-7.7592,-7.7645,-7.7752,-7.787,-7.7962,-7.7937,-7.8028,-7.8106,-7.8225,-7.8303,-7.8398,-7.854,-7.8654,-7.8711,-7.8824,-7.8896,-7.889,-7.8925,-7.892,-7.8931,-7.8721,-7.8683,-7.8928,-7.8928,-7.8928,-7.8928,-7.8928,-7.8928,-7.7738,-7.7895,-7.7918,-7.8107,-7.8159,-7.8292,-7.8346,-7.8418,-7.8481,-7.8641,-7.8736,-7.8773,-7.8843,-7.8961,-7.9065,-7.9078,-7.9121,-7.9161,-7.917,-7.8972,-7.8946,-7.8921,-7.8886,-7.917,-7.917,-7.9372,-7.9374,-7.9376]}]]